sat.trackr.live / text

‹ back to catalog

COSMOS 2575

NORAD 58929 · 2024-026A

PAYLOAD ACTIVE UNKNOWN

§ Identity

Operator
Country
CIS
Launch date
2024-02-09
Launch site
PLMSC
Launch vehicle
Mass (kg)
RCS (m²)

External: N2YO · Heavens-Above · Gunter

§ Orbital elements

Epoch: 2026-05-25T04:44:46.146048Z

Period
91.40 min
Inclination
96.6216°
Eccentricity
0.0003423
Mean motion
15.75452312 rev/d
Perigee alt
341.0 km
Apogee alt
345.6 km
Semi-major
6,721.5 km
B*
1.9035e-4
RAAN
30.2719°
Arg perigee
82.1166°
Mean anomaly
278.0489°
Rev number
13,201

§ Raw data

COSMOS 25751 58929U 24026A   26145.19775632  .00028703  00000+0  19035-3 0  99952 58929  96.6216  30.2719 0003423  82.1166 278.0489 15.75452312132013

JSON: /api/v1/satellites/58929 · /tle

For live sub-satellite position, see the globe view (requires WebGL).

§ Visibility from observer

Set your observer location to see the next 7 days of passes ≥ 10°. The values pass through the URL so the page stays shareable.

No JS? Fill the form by hand. The geolocation button needs JavaScript.